Regional Weather Roundup
Issued by NWS

Home | Current Version | Previous Version | Graphics & Text | Print | Product List | Glossary On
Versions: 1 2 3 4 5 6 7 8 9 10 11 12 13 14 15 16 17 18 19 20 21 22 23 24 25 26 27 28 29 30 31 32 33 34 35 36 37 38 39 40 41 42 43 44 45 46 47 48 49 50
000
ASUS45 KSLC 270610
RWRUT

UTAH REGIONAL WEATHER ROUNDUP
NATIONAL WEATHER SERVICE SALT LAKE CITY UT
1200 AM MDT MON MAR 27 2017

UTZ001>011-023>025-270700-

NORTHERN UTAH

CITY           SKY/WX    TMP DP  RH WIND       PRES   REMARKS
BRIGHAM CITY     N/A     50  32  50 CALM      29.93F
HILL AFB       CLOUDY    47  31  54 SE9       29.92F
LOGAN          CLOUDY    48  34  58 CALM      29.93F
OGDEN          CLOUDY    46  32  58 S9        29.92F
SALT LAKE CITY CLOUDY    50  33  52 SE6       29.92F
WENDOVER       CLOUDY    49  39  68 NE8       29.91S
HEBER CITY     PTCLDY    36  28  75 CALM      29.96F

$$

UTZ011>015-024>027-270700-

CENTRAL/NORTHEAST UTAH

CITY           SKY/WX    TMP DP  RH WIND       PRES   REMARKS
PROVO AIRPORT  CLOUDY    46  35  65 S8        29.96F
MOAB/CANYONLAN PTCLDY    48  24  39 W3        29.93S
DELTA          CLOUDY    45  36  70 CALM      29.94F
PRICE          CLOUDY    41  26  55 W6        29.97S
RICHFIELD      CLOUDY    45  36  70 CALM      30.00F
ROOSEVELT      PTCLDY    41  32  70 W7        29.98F
VERNAL         CLOUDY    40  32  73 W3        29.96S

$$

UTZ013>016-019>022-027-270700-

SOUTHERN UTAH

CITY           SKY/WX    TMP DP  RH WIND       PRES   REMARKS
BRYCE CANYON   CLEAR     33  25  72 CALM      30.05F
CEDAR CITY     CLOUDY    45  34  65 S7        29.99F
MILFORD        CLOUDY    49  33  54 SW15      29.95F
ST GEORGE      CLOUDY    56  31  38 CALM      29.94F
HANKSVILLE     CLEAR     43  27  52 CALM      29.96S
KANAB          CLEAR     39  32  75 N3        30.03F
BLANDING       CLEAR     36  23  60 NE5       30.07S WCI  32

$$

REGIONAL REPORTS     COLORADO/ARIZONA

CITY           SKY/WX    TMP DP  RH WIND       PRES   REMARKS
CRAIG, CO      PTCLDY    30  23  75 CALM      29.99S
GRAND JUNCTION PTCLDY    45  21  38 SE5       29.96R
RIFLE, CO      PTCLDY    39  27  62 CALM      29.99R
MONTROSE, CO   CLEAR     40  34  79 SE9       30.02S WCI  34
CORTEZ, CO     CLOUDY    36  32  85 E7        30.02F WCI  30
COLORADO CITY    N/A     43  34  70 SE5       30.03S
PAGE, AZ       CLEAR     54  34  46 SW6       29.96F
GRAND CANYON   PTCLDY    33  28  81 CALM      30.07F
KINGMAN, AZ    PTCLDY    55  20  25 S12       29.97S
FLAGSTAFF, AZ  CLEAR     33  26  75 CALM      30.09S

$$

REGIONAL REPORTS    NEVADA/IDAHO/WYOMING

CITY           SKY/WX    TMP DP  RH WIND       PRES   REMARKS
LAS VEGAS, NV  MOCLDY    65  29  25 S5        29.87F
ELY, NY        MOCLDY    41  34  76 S8        29.94F
ELKO, NV       CLOUDY    37  31  78 CALM      29.92F
POCATELLO, ID  CLOUDY    41  38  89 NW5       29.93S
BURLEY, ID     CLOUDY    43  37  79 E6        29.89F
EVANSTON, WY   CLOUDY    35  24  64 SW9       29.96F WCI  28
ROCK SPRINGS,  CLOUDY    36  27  69 SW8       29.98F WCI  30
KEMMERER, WY     N/A     32  27  80 N6        29.97F WCI  26

$$



USA.gov is the U.S. government's official web portal to all federal, state and local government web resources and services.